RYR55RY EKCH-EGCC

Flight info

Callsign RYR55RY
Flight time 1h 37m
Altitude 38000
Route ODDON DCT RENEQ DCT ERDOW UL975 LIBSO
Aircraft B38M/M-SADE3FGILRWY/SB1

Departure

Time 2026-04-25 20:54
Airport Copenhagen Kastrup Airport (EKCH)

Arrival

Time 2026-04-25 22:31
Airport Manchester Airport (EGCC)
Time Latitude Longitude Altitude Speed Heading
2026-04-25 20:18 55.62515 12.65569 26 ft 0 kts 23°
2026-04-25 20:39 55.62513 12.65567 26 ft 3 kts 22°
2026-04-25 20:39 55.62499 12.65558 16 ft 3 kts 18°
2026-04-25 20:40 55.62470 12.65546 28 ft 3 kts
2026-04-25 20:40 55.62450 12.65553 30 ft 3 kts 321°
2026-04-25 20:40 55.62444 12.65570 30 ft 0 kts 269°
2026-04-25 20:47 55.62444 12.65569 26 ft 1 kts 269°
2026-04-25 20:47 55.62444 12.65546 30 ft 3 kts 269°
2026-04-25 20:47 55.62443 12.65492 30 ft 6 kts 269°
2026-04-25 20:48 55.62442 12.65409 30 ft 8 kts 268°
2026-04-25 20:48 55.62440 12.65296 27 ft 10 kts 268°
2026-04-25 20:48 55.62400 12.65204 29 ft 11 kts 186°
2026-04-25 20:48 55.62312 12.65203 29 ft 14 kts 181°
2026-04-25 20:49 55.62216 12.65180 26 ft 12 kts 202°
2026-04-25 20:49 55.62158 12.65118 26 ft 10 kts 213°
2026-04-25 20:49 55.62090 12.65041 27 ft 15 kts 213°
2026-04-25 20:49 55.61971 12.64903 27 ft 26 kts 213°
2026-04-25 20:50 55.61807 12.64714 26 ft 29 kts 213°
2026-04-25 20:50 55.61640 12.64521 26 ft 29 kts 213°
2026-04-25 20:50 55.61473 12.64329 26 ft 28 kts 213°
2026-04-25 20:50 55.61307 12.64138 30 ft 29 kts 213°
2026-04-25 20:51 55.61140 12.63946 27 ft 28 kts 213°
2026-04-25 20:51 55.60972 12.63753 27 ft 29 kts 213°
2026-04-25 20:51 55.60801 12.63556 29 ft 29 kts 212°
2026-04-25 20:51 55.60638 12.63360 26 ft 28 kts 218°
2026-04-25 20:52 55.60516 12.63175 26 ft 16 kts 221°
2026-04-25 20:52 55.60474 12.63117 28 ft 10 kts 215°
2026-04-25 20:52 55.60409 12.63149 26 ft 9 kts 133°
2026-04-25 20:52 55.60363 12.63239 27 ft 10 kts 132°
2026-04-25 20:53 55.60335 12.63331 29 ft 8 kts 71°
2026-04-25 20:53 55.60377 12.63405 28 ft 11 kts 42°
2026-04-25 20:53 55.60514 12.63615 27 ft 58 kts 41°
2026-04-25 20:53 55.61009 12.64380 25 ft 129 kts 42°
2026-04-25 20:54 55.61810 12.65642 162 ft 168 kts 39°
2026-04-25 20:54 55.62635 12.66945 1168 ft 152 kts 33°
2026-04-25 20:54 55.63484 12.68239 1756 ft 179 kts 32°
2026-04-25 20:54 55.64538 12.69756 2296 ft 206 kts 33°
2026-04-25 20:55 55.65714 12.71224 3349 ft 205 kts 19°
2026-04-25 20:55 55.67123 12.71579 4157 ft 213 kts 353°
2026-04-25 20:55 55.68591 12.70829 4729 ft 227 kts 339°
2026-04-25 20:55 55.70111 12.69805 5244 ft 239 kts 348°
2026-04-25 20:56 55.71770 12.69518 6044 ft 241 kts 358°
2026-04-25 20:56 55.73462 12.69417 6754 ft 248 kts 356°
2026-04-25 20:56 55.75098 12.68644 7596 ft 247 kts 332°
2026-04-25 20:56 55.76346 12.66519 8225 ft 259 kts 305°
2026-04-25 20:57 55.76972 12.63448 9138 ft 265 kts 285°
2026-04-25 20:57 55.77108 12.60214 10030 ft 268 kts 276°
2026-04-25 20:57 55.76959 12.56810 10468 ft 287 kts 269°
2026-04-25 20:57 55.76607 12.53168 10862 ft 301 kts 267°
2026-04-25 20:58 55.76247 12.49529 11425 ft 308 kts 268°
2026-04-25 20:58 55.75887 12.45738 12067 ft 312 kts 269°
2026-04-25 20:58 55.75530 12.41938 12830 ft 313 kts 271°
2026-04-25 20:58 55.75178 12.38125 13697 ft 313 kts 272°
2026-04-25 20:59 55.74829 12.34302 14419 ft 315 kts 273°
2026-04-25 20:59 55.74475 12.30455 15162 ft 316 kts 274°
2026-04-25 20:59 55.74120 12.26596 15924 ft 318 kts 274°
2026-04-25 20:59 55.73762 12.22723 16684 ft 319 kts 275°
2026-04-25 21:00 55.73400 12.18824 17443 ft 321 kts 275°
2026-04-25 21:00 55.73277 12.17507 17703 ft 322 kts 276°
2026-04-25 21:00 55.72291 12.06985 19363 ft 328 kts 276°
2026-04-25 21:01 55.71913 12.02978 19900 ft 332 kts 276°
2026-04-25 21:01 55.71529 11.98926 20396 ft 334 kts 276°
2026-04-25 21:01 55.71143 11.94853 20963 ft 336 kts 275°
2026-04-25 21:01 55.70752 11.90744 21486 ft 339 kts 275°
2026-04-25 21:02 55.70356 11.86606 22034 ft 342 kts 275°
2026-04-25 21:02 55.69955 11.82424 22453 ft 346 kts 274°
2026-04-25 21:02 55.69549 11.78188 22887 ft 351 kts 274°
2026-04-25 21:02 55.69134 11.73911 23436 ft 354 kts 274°
2026-04-25 21:03 55.68714 11.69586 23895 ft 357 kts 274°
2026-04-25 21:03 55.68289 11.65231 24325 ft 360 kts 274°
2026-04-25 21:03 55.67860 11.60838 24767 ft 363 kts 274°
2026-04-25 21:03 55.67424 11.56405 25199 ft 367 kts 274°
2026-04-25 21:04 55.66984 11.51939 25625 ft 370 kts 274°
2026-04-25 21:04 55.66539 11.47435 26061 ft 373 kts 274°
2026-04-25 21:04 55.66088 11.42896 26482 ft 376 kts 274°
2026-04-25 21:04 55.65632 11.38328 26890 ft 379 kts 274°
2026-04-25 21:05 55.65170 11.33713 27289 ft 382 kts 274°
2026-04-25 21:05 55.64703 11.29070 27683 ft 385 kts 273°
2026-04-25 21:05 55.64230 11.24388 28070 ft 388 kts 273°
2026-04-25 21:05 55.63753 11.19665 28369 ft 392 kts 272°
2026-04-25 21:06 55.63267 11.14898 28732 ft 395 kts 272°
2026-04-25 21:06 55.62776 11.10099 29126 ft 397 kts 272°
2026-04-25 21:06 55.62280 11.05267 29494 ft 400 kts 272°
2026-04-25 21:06 55.62118 11.03696 29609 ft 401 kts 272°
2026-04-25 21:07 55.61274 10.95523 30193 ft 406 kts 271°
2026-04-25 21:07 55.60762 10.90594 30508 ft 408 kts 271°
2026-04-25 21:07 55.60247 10.85651 30827 ft 410 kts 271°
2026-04-25 21:07 55.59727 10.80687 31135 ft 412 kts 271°
2026-04-25 21:08 55.59202 10.75700 31438 ft 413 kts 271°
2026-04-25 21:08 55.58674 10.70701 31752 ft 415 kts 271°
2026-04-25 21:08 55.58126 10.65733 32041 ft 422 kts 267°
2026-04-25 21:08 55.57254 10.60649 32393 ft 428 kts 264°
2026-04-25 21:09 55.55473 10.50654 32960 ft 432 kts 264°
2026-04-25 21:09 55.54561 10.45589 33273 ft 433 kts 264°
2026-04-25 21:09 55.53644 10.40520 33648 ft 432 kts 264°
2026-04-25 21:10 55.52716 10.35400 34068 ft 431 kts 264°
2026-04-25 21:10 55.51813 10.30437 34408 ft 430 kts 264°
2026-04-25 21:10 55.50898 10.25416 34716 ft 430 kts 264°
2026-04-25 21:10 55.49980 10.20397 35024 ft 430 kts 264°
2026-04-25 21:11 55.49063 10.15392 35325 ft 430 kts 264°
2026-04-25 21:11 55.48141 10.10378 35631 ft 429 kts 263°
2026-04-25 21:11 55.47219 10.05371 35927 ft 429 kts 263°
2026-04-25 21:11 55.46295 10.00373 36140 ft 430 kts 263°
2026-04-25 21:12 55.45366 9.95358 36349 ft 431 kts 263°
2026-04-25 21:12 55.44432 9.90330 36638 ft 431 kts 263°
2026-04-25 21:12 55.43500 9.85328 36907 ft 430 kts 262°
2026-04-25 21:12 55.43185 9.83637 37000 ft 430 kts 262°
2026-04-25 21:13 55.41629 9.75324 37454 ft 430 kts 262°
2026-04-25 21:13 55.40694 9.70344 37714 ft 429 kts 262°
2026-04-25 21:13 55.39757 9.65364 37927 ft 429 kts 262°
2026-04-25 21:13 55.38816 9.60381 38119 ft 429 kts 262°
2026-04-25 21:14 55.36931 9.50431 38120 ft 427 kts 262°
2026-04-25 21:14 55.35043 9.40524 38078 ft 428 kts 261°
2026-04-25 21:15 55.33141 9.30589 38105 ft 430 kts 261°
2026-04-25 21:15 55.31552 9.22331 38101 ft 429 kts 261°
2026-04-25 21:16 55.29634 9.12409 38104 ft 429 kts 261°
2026-04-25 21:16 55.27707 9.02491 38108 ft 430 kts 261°
2026-04-25 21:17 55.25771 8.92579 38108 ft 430 kts 261°
2026-04-25 21:17 55.23829 8.82682 38064 ft 430 kts 260°
2026-04-25 21:18 55.21868 8.72747 38137 ft 433 kts 260°
2026-04-25 21:18 55.19896 8.62800 38124 ft 433 kts 259°
2026-04-25 21:19 55.17911 8.52845 38140 ft 433 kts 259°
2026-04-25 21:19 55.15919 8.42902 38153 ft 433 kts 259°
2026-04-25 21:20 55.14257 8.34642 38160 ft 433 kts 259°
2026-04-25 21:20 55.11909 8.23035 38111 ft 433 kts 258°
2026-04-25 21:21 55.09887 8.13094 38165 ft 435 kts 258°
2026-04-25 21:21 55.07854 8.03148 38167 ft 435 kts 258°
2026-04-25 21:22 55.05811 7.93206 38170 ft 435 kts 258°
2026-04-25 21:22 55.03762 7.83279 38180 ft 435 kts 258°
2026-04-25 21:23 55.01704 7.73363 38161 ft 435 kts 257°
2026-04-25 21:23 54.99634 7.63432 38169 ft 437 kts 256°
2026-04-25 21:24 54.97544 7.53461 38197 ft 439 kts 256°
2026-04-25 21:24 54.95447 7.43500 38197 ft 438 kts 256°
2026-04-25 21:25 54.93342 7.33556 38205 ft 438 kts 256°
2026-04-25 21:25 54.91227 7.23611 38206 ft 438 kts 256°
2026-04-25 21:26 54.89105 7.13681 38216 ft 438 kts 256°
2026-04-25 21:26 54.86975 7.03759 38189 ft 439 kts 255°
2026-04-25 21:27 54.84830 6.93822 38223 ft 440 kts 255°
2026-04-25 21:27 54.82676 6.83887 38228 ft 440 kts 255°
2026-04-25 21:28 54.80515 6.73969 38216 ft 440 kts 254°
2026-04-25 21:28 54.78341 6.64036 38233 ft 441 kts 254°
2026-04-25 21:29 54.76174 6.54187 38237 ft 440 kts 254°
2026-04-25 21:29 54.73986 6.44288 38233 ft 441 kts 253°
2026-04-25 21:30 54.71786 6.34380 38237 ft 441 kts 253°
2026-04-25 21:30 54.69937 6.26090 38249 ft 441 kts 253°
2026-04-25 21:31 54.67361 6.14600 38246 ft 441 kts 253°
2026-04-25 21:31 54.65136 6.04719 38245 ft 441 kts 253°
2026-04-25 21:32 54.62905 5.94864 38251 ft 441 kts 253°
2026-04-25 21:32 54.60664 5.85008 38236 ft 441 kts 251°
2026-04-25 21:33 54.58422 5.75193 38250 ft 439 kts 251°
2026-04-25 21:33 54.56178 5.65413 38257 ft 439 kts 251°
2026-04-25 21:34 54.53918 5.55612 38263 ft 439 kts 251°
2026-04-25 21:34 54.51662 5.45871 38267 ft 439 kts 251°
2026-04-25 21:35 54.49389 5.36105 38267 ft 439 kts 251°
2026-04-25 21:35 54.47116 5.26380 38254 ft 437 kts 250°
2026-04-25 21:36 54.44845 5.16707 38270 ft 437 kts 250°
2026-04-25 21:36 54.42562 5.07029 38271 ft 437 kts 250°
2026-04-25 21:37 54.40659 4.98996 38271 ft 437 kts 250°
2026-04-25 21:37 54.37975 4.87707 38267 ft 438 kts 249°
2026-04-25 21:38 54.35664 4.78027 38262 ft 438 kts 249°
2026-04-25 21:38 54.33346 4.68357 38271 ft 438 kts 250°
2026-04-25 21:39 54.31023 4.58705 38273 ft 438 kts 249°
2026-04-25 21:39 54.28694 4.49070 38268 ft 438 kts 250°
2026-04-25 21:40 54.26357 4.39443 38279 ft 438 kts 249°
2026-04-25 21:40 54.24143 4.29742 38250 ft 435 kts 259°
2026-04-25 21:41 54.23225 4.19556 38254 ft 435 kts 263°
2026-04-25 21:41 54.22388 4.09341 38278 ft 434 kts 264°
2026-04-25 21:42 54.21573 3.99111 38290 ft 434 kts 263°
2026-04-25 21:42 54.20753 3.88901 38284 ft 434 kts 264°
2026-04-25 21:43 54.19924 3.78681 38291 ft 435 kts 264°
2026-04-25 21:43 54.19086 3.68473 38288 ft 434 kts 263°
2026-04-25 21:44 54.18240 3.58280 38294 ft 434 kts 263°
2026-04-25 21:45 54.16955 3.42991 38294 ft 434 kts 263°
2026-04-25 21:45 54.16088 3.32806 38298 ft 434 kts 263°
2026-04-25 21:46 54.15213 3.22630 38296 ft 434 kts 263°
2026-04-25 21:46 54.14328 3.12453 38292 ft 434 kts 263°
2026-04-25 21:47 54.13433 3.02254 38299 ft 435 kts 263°
2026-04-25 21:47 54.12529 2.92062 38304 ft 435 kts 263°
2026-04-25 21:48 54.11617 2.81878 38300 ft 435 kts 262°
2026-04-25 21:48 54.10703 2.71765 38300 ft 435 kts 262°
2026-04-25 21:49 54.09773 2.61579 38300 ft 435 kts 262°
2026-04-25 21:49 54.08835 2.51405 38303 ft 435 kts 262°
2026-04-25 21:50 54.07886 2.41215 38303 ft 435 kts 262°
2026-04-25 21:50 54.06930 2.31041 38304 ft 435 kts 262°
2026-04-25 21:51 54.05965 2.20866 38309 ft 435 kts 262°
2026-04-25 21:51 54.04992 2.10708 38301 ft 435 kts 262°
2026-04-25 21:52 54.04008 2.00515 38310 ft 437 kts 261°
2026-04-25 21:52 54.03012 1.90319 38303 ft 437 kts 261°
2026-04-25 21:53 54.02008 1.80110 38306 ft 437 kts 261°
2026-04-25 21:53 54.00997 1.69929 38307 ft 437 kts 261°
2026-04-25 21:54 53.99976 1.59739 38308 ft 437 kts 261°
2026-04-25 21:54 53.98948 1.49570 38309 ft 436 kts 261°
2026-04-25 21:55 53.97913 1.39428 38309 ft 435 kts 261°
2026-04-25 21:55 53.96872 1.29304 38314 ft 435 kts 261°
2026-04-25 21:56 53.95822 1.19183 38309 ft 435 kts 261°
2026-04-25 21:56 53.94766 1.09064 38313 ft 435 kts 261°
2026-04-25 21:57 53.93704 0.98963 38307 ft 433 kts 260°
2026-04-25 21:57 53.92626 0.88916 38307 ft 433 kts 257°
2026-04-25 21:57 53.91609 0.84134 38303 ft 431 kts 243°
2026-04-25 21:58 53.90203 0.79630 38297 ft 434 kts 241°
2026-04-25 21:58 53.88598 0.75340 37929 ft 427 kts 236°
2026-04-25 21:58 53.86781 0.71379 37323 ft 426 kts 226°
2026-04-25 21:58 53.84521 0.68139 36746 ft 425 kts 218°
2026-04-25 21:59 53.82225 0.65036 36239 ft 420 kts 226°
2026-04-25 21:59 53.80300 0.61364 35763 ft 416 kts 229°
2026-04-25 21:59 53.78377 0.57746 35294 ft 412 kts 228°
2026-04-25 22:00 53.75204 0.51779 34480 ft 409 kts 228°
2026-04-25 22:00 53.73311 0.48213 33928 ft 407 kts 228°
2026-04-25 22:00 53.71424 0.44666 33405 ft 404 kts 228°
2026-04-25 22:00 53.68946 0.40018 32793 ft 400 kts 229°
2026-04-25 22:01 53.67094 0.36548 32338 ft 396 kts 229°
2026-04-25 22:01 53.65851 0.34221 32029 ft 394 kts 229°
2026-04-25 22:01 53.64023 0.30804 31577 ft 391 kts 229°
2026-04-25 22:01 53.62815 0.28550 31282 ft 390 kts 229°
2026-04-25 22:02 53.60399 0.24045 30692 ft 386 kts 229°
2026-04-25 22:02 53.58599 0.20695 30233 ft 384 kts 229°
2026-04-25 22:02 53.56813 0.17375 29740 ft 382 kts 229°
2026-04-25 22:02 53.55042 0.14073 29309 ft 378 kts 231°
2026-04-25 22:03 53.53638 0.10405 28782 ft 373 kts 249°
2026-04-25 22:03 53.53069 0.06216 28396 ft 366 kts 268°
2026-04-25 22:03 53.53200 0.01981 28073 ft 360 kts 275°
2026-04-25 22:03 53.53436 -0.02183 27676 ft 357 kts 276°
2026-04-25 22:04 53.53703 -0.06322 27276 ft 355 kts 277°
2026-04-25 22:04 53.53980 -0.10372 26892 ft 352 kts 277°
2026-04-25 22:04 53.54273 -0.14493 26495 ft 350 kts 277°
2026-04-25 22:04 53.54562 -0.18492 26114 ft 348 kts 278°
2026-04-25 22:05 53.54855 -0.22514 25724 ft 346 kts 278°
2026-04-25 22:05 53.55146 -0.26526 25337 ft 345 kts 278°
2026-04-25 22:05 53.55435 -0.30512 24952 ft 343 kts 278°
2026-04-25 22:05 53.55722 -0.34494 24568 ft 342 kts 278°
2026-04-25 22:06 53.56007 -0.38451 24186 ft 341 kts 278°
2026-04-25 22:06 53.56290 -0.42406 23790 ft 340 kts 278°
2026-04-25 22:06 53.56570 -0.46348 23343 ft 339 kts 278°
2026-04-25 22:06 53.56847 -0.50265 22945 ft 336 kts 278°
2026-04-25 22:07 53.57122 -0.54160 22566 ft 334 kts 278°
2026-04-25 22:07 53.57301 -0.56716 22318 ft 332 kts 278°
2026-04-25 22:07 53.57661 -0.61849 21821 ft 329 kts 277°
2026-04-25 22:07 53.57926 -0.65652 21441 ft 327 kts 277°
2026-04-25 22:08 53.58188 -0.69452 21036 ft 326 kts 277°
2026-04-25 22:08 53.58445 -0.73189 20888 ft 317 kts 277°
2026-04-25 22:08 53.58694 -0.76815 20767 ft 308 kts 277°
2026-04-25 22:08 53.58936 -0.80365 20493 ft 304 kts 277°
2026-04-25 22:09 53.59176 -0.83905 20058 ft 306 kts 277°
2026-04-25 22:09 53.59418 -0.87478 19569 ft 310 kts 277°
2026-04-25 22:09 53.59664 -0.91126 18980 ft 317 kts 277°
2026-04-25 22:09 53.59913 -0.94852 18534 ft 319 kts 277°
2026-04-25 22:10 53.60160 -0.98536 18169 ft 317 kts 277°
2026-04-25 22:10 53.60404 -1.02216 17818 ft 314 kts 277°
2026-04-25 22:10 53.60644 -1.05853 17466 ft 311 kts 276°
2026-04-25 22:10 53.60964 -1.09422 17234 ft 305 kts 284°
2026-04-25 22:11 53.61474 -1.12850 17070 ft 301 kts 283°
2026-04-25 22:11 53.61965 -1.16281 16911 ft 302 kts 283°
2026-04-25 22:11 53.62446 -1.19719 16740 ft 301 kts 283°
2026-04-25 22:11 53.62919 -1.23160 16569 ft 301 kts 283°
2026-04-25 22:12 53.63386 -1.26589 16398 ft 300 kts 283°
2026-04-25 22:12 53.63850 -1.30016 16228 ft 300 kts 283°
2026-04-25 22:12 53.64311 -1.33440 16053 ft 299 kts 283°
2026-04-25 22:12 53.64615 -1.35701 15940 ft 299 kts 283°
2026-04-25 22:13 53.65226 -1.40258 15711 ft 298 kts 283°
2026-04-25 22:13 53.65681 -1.43665 15543 ft 297 kts 283°
2026-04-25 22:13 53.66133 -1.47055 15369 ft 297 kts 283°
2026-04-25 22:13 53.66584 -1.50447 15204 ft 296 kts 283°
2026-04-25 22:14 53.67033 -1.53829 15028 ft 295 kts 283°
2026-04-25 22:14 53.67480 -1.57200 14861 ft 294 kts 282°
2026-04-25 22:14 53.67923 -1.60566 14693 ft 294 kts 281°
2026-04-25 22:14 53.68011 -1.63925 14507 ft 291 kts 261°
2026-04-25 22:15 53.67537 -1.67272 14356 ft 290 kts 255°
2026-04-25 22:15 53.67009 -1.70519 14201 ft 292 kts 255°
2026-04-25 22:15 53.66469 -1.73829 13979 ft 293 kts 255°
2026-04-25 22:16 53.65384 -1.80513 13426 ft 292 kts 255°
2026-04-25 22:16 53.64848 -1.83811 13131 ft 291 kts 255°
2026-04-25 22:16 53.64313 -1.87095 12841 ft 290 kts 255°
2026-04-25 22:16 53.63782 -1.90369 12549 ft 289 kts 255°
2026-04-25 22:17 53.63252 -1.93634 12276 ft 289 kts 255°
2026-04-25 22:17 53.62726 -1.96897 12003 ft 288 kts 255°
2026-04-25 22:17 53.62200 -2.00143 11734 ft 287 kts 255°
2026-04-25 22:17 53.61674 -2.03388 11472 ft 286 kts 255°
2026-04-25 22:18 53.61150 -2.06611 11215 ft 285 kts 255°
2026-04-25 22:18 53.60641 -2.09835 10927 ft 284 kts 255°
2026-04-25 22:18 53.60156 -2.13007 10664 ft 282 kts 255°
2026-04-25 22:18 53.59667 -2.16200 10401 ft 281 kts 255°
2026-04-25 22:19 53.59184 -2.19376 10140 ft 280 kts 255°
2026-04-25 22:19 53.58701 -2.22536 9854 ft 278 kts 255°
2026-04-25 22:19 53.58228 -2.25676 9568 ft 275 kts 255°
2026-04-25 22:19 53.57752 -2.28783 9297 ft 273 kts 255°
2026-04-25 22:20 53.57283 -2.31851 9249 ft 270 kts 255°
2026-04-25 22:20 53.56806 -2.34921 9252 ft 272 kts 255°
2026-04-25 22:20 53.56331 -2.37998 9254 ft 271 kts 255°
2026-04-25 22:20 53.55858 -2.41072 9248 ft 271 kts 255°
2026-04-25 22:21 53.55387 -2.44136 9249 ft 271 kts 255°
2026-04-25 22:21 53.54916 -2.47209 9249 ft 271 kts 255°
2026-04-25 22:21 53.54441 -2.50275 9173 ft 272 kts 255°
2026-04-25 22:21 53.53962 -2.53378 8749 ft 276 kts 255°
2026-04-25 22:22 53.53468 -2.56526 8289 ft 281 kts 255°
2026-04-25 22:22 53.52971 -2.59713 7852 ft 284 kts 255°
2026-04-25 22:22 53.52465 -2.62936 7423 ft 286 kts 255°
2026-04-25 22:22 53.51744 -2.66050 6975 ft 288 kts 236°
2026-04-25 22:23 53.50321 -2.68400 6532 ft 291 kts 212°
2026-04-25 22:23 53.48420 -2.69489 6191 ft 290 kts 187°
2026-04-25 22:23 53.46428 -2.69550 5993 ft 283 kts 180°
2026-04-25 22:23 53.44484 -2.69478 5790 ft 277 kts 180°
2026-04-25 22:24 53.42578 -2.69408 5598 ft 270 kts 180°
2026-04-25 22:24 53.40718 -2.69343 5397 ft 265 kts 180°
2026-04-25 22:24 53.38896 -2.69283 5198 ft 259 kts 180°
2026-04-25 22:24 53.37109 -2.69227 5010 ft 254 kts 180°
2026-04-25 22:25 53.35351 -2.69175 4852 ft 252 kts 180°
2026-04-25 22:25 53.33613 -2.68910 4682 ft 252 kts 163°
2026-04-25 22:25 53.32044 -2.67647 4560 ft 252 kts 150°
2026-04-25 22:25 53.30538 -2.66132 4465 ft 252 kts 150°
2026-04-25 22:26 53.29042 -2.64620 4368 ft 251 kts 150°
2026-04-25 22:26 53.27564 -2.63128 4262 ft 244 kts 150°
2026-04-25 22:26 53.26138 -2.61688 4152 ft 235 kts 150°
2026-04-25 22:26 53.24766 -2.60290 4039 ft 227 kts 146°
2026-04-25 22:27 53.23757 -2.58370 3901 ft 220 kts 114°
2026-04-25 22:27 53.23488 -2.55896 3805 ft 219 kts 91°
2026-04-25 22:27 53.23541 -2.53343 3737 ft 222 kts 83°
2026-04-25 22:27 53.24063 -2.50953 3592 ft 220 kts 60°
2026-04-25 22:28 53.24944 -2.48869 3304 ft 221 kts 52°
2026-04-25 22:28 53.25917 -2.46876 3008 ft 222 kts 51°
2026-04-25 22:28 53.26889 -2.44901 2752 ft 217 kts 52°
2026-04-25 22:28 53.27838 -2.42960 2433 ft 214 kts 53°
2026-04-25 22:29 53.28754 -2.41086 2158 ft 203 kts 53°
2026-04-25 22:29 53.29623 -2.39301 1887 ft 193 kts 54°
2026-04-25 22:29 53.30453 -2.37598 1617 ft 185 kts 54°
2026-04-25 22:30 53.31901 -2.34627 1193 ft 147 kts 55°
2026-04-25 22:30 53.32528 -2.33331 983 ft 142 kts 53°
2026-04-25 22:30 53.33144 -2.32060 777 ft 138 kts 52°
2026-04-25 22:30 53.33551 -2.31221 635 ft 137 kts 51°
2026-04-25 22:31 53.34391 -2.29524 374 ft 149 kts 52°
2026-04-25 22:31 53.35048 -2.28172 237 ft 143 kts 51°
2026-04-25 22:31 53.35605 -2.27020 261 ft 103 kts 51°
2026-04-25 22:31 53.35891 -2.26426 270 ft 45 kts 51°
2026-04-25 22:32 53.36024 -2.26155 261 ft 12 kts 46°
2026-04-25 22:32 53.36094 -2.26191 259 ft 13 kts 320°
2026-04-25 22:32 53.36136 -2.26321 258 ft 15 kts 246°
2026-04-25 22:32 53.36066 -2.26473 257 ft 17 kts 232°
2026-04-25 22:33 53.36000 -2.26613 257 ft 14 kts 231°
2026-04-25 22:33 53.35968 -2.26715 257 ft 10 kts 280°
2026-04-25 22:33 53.35993 -2.26780 257 ft 6 kts 281°
2026-04-25 22:33 53.36016 -2.26848 257 ft 6 kts 313°
2026-04-25 22:34 53.36034 -2.26880 257 ft 2 kts 313°
2026-04-25 22:34 53.36036 -2.26884 257 ft 0 kts 313°